CW7841 Weather Reports


time (UTC)temp
F
wind
direction
speed
knots
gust
knots
rain 1hr
in
rain 24hr
in
rain mn
in
humidity
%
barometer
mb
20260504160218 78 52 7.8 13.9 0.00 0.00 0.00 59 1016.2
20260504150717 76 43 6.1 11.3 0.00 0.00 0.00 63 1016.5
20260504150237 76 45 7.0 11.3 0.00 0.00 0.00 62 1016.4
20260504141257 75 65 6.1 9.6 0.00 0.00 0.00 64 1015.7
20260504140717 75 61 3.5 9.6 0.00 0.00 0.00 63 1015.6
20260504140217 76 48 4.3 8.7 0.00 0.00 0.00 63 1015.6
20260504130736 75 28 1.7 10.4 0.00 0.00 0.00 64 1015.1
20260504130216 74 41 2.6 10.4 0.00 0.00 0.00 64 1015.1
20260504120216 74 27 5.2 11.3 0.00 0.00 0.00 67 1014.6
20260504110716 74 33 2.6 7.8 0.00 0.25 0.00 67 1013.9
20260504110216 74 349 2.6 7.8 0.00 0.25 0.00 68 1013.9
20260504100235 74 47 2.6 4.3 0.00 0.25 0.00 69 1013.5
20260504081714 74 356 2.6 7.8 0.00 0.25 0.00 68 1013.0
20260504081214 74 53 0.9 7.8 0.00 0.25 0.00 68 1013.1
20260504080714 74 27 2.6 7.8 0.00 0.25 0.00 68 1013.2
20260504080215 74 22 6.1 6.1 0.00 0.25 0.00 68 1012.9
20260504070214 74 50 2.6 7.8 0.00 0.25 0.00 69 1013.9
20260504060234 74 57 3.5 5.2 0.00 0.25 0.00 69 1014.5
20260504050733 74 65 0.9 7.0 0.00 0.25 0.00 69 1014.8
20260504050233 74 82 2.6 7.0 0.00 0.25 0.00 69 1014.8
20260504045713 74 59 4.3 8.7 0.00 0.25 0.00 69 1014.9
20260504045233 74 63 2.6 8.7 0.00 0.25 0.00 69 1014.9
20260504044713 74 33 1.7 7.8 0.00 0.25 0.00 68 1014.7
20260504044213 74 68 5.2 7.8 0.00 0.25 0.00 68 1015.1
20260504043713 74 65 2.6 7.8 0.00 0.25 0.00 69 1015.2
20260504043213 74 59 2.6 7.8 0.00 0.25 0.00 69 1015.0
20260504042713 74 73 3.5 8.7 0.00 0.25 0.00 68 1015.1
20260504042213 74 47 3.5 8.7 0.00 0.25 0.00 68 1015.2
20260504041713 74 41 2.6 8.7 0.00 0.25 0.00 69 1015.1
20260504041213 74 63 4.3 9.6 0.00 0.25 0.00 68 1015.1
20260504040713 74 48 5.2 8.7 0.00 0.25 0.00 68 1015.2
20260504040253 74 51 2.6 8.7 0.00 0.25 0.00 69 1015.2
20260504035713 74 66 7.0 8.7 0.00 0.25 0.25 69 1015.5
20260504035233 74 72 3.5 8.7 0.00 0.25 0.25 68 1015.5
20260504034713 74 51 6.1 8.7 0.00 0.25 0.25 68 1015.3
20260504034213 74 62 2.6 10.4 0.00 0.25 0.25 68 1015.5
20260504033713 74 55 1.7 10.4 0.00 0.25 0.25 68 1015.7
20260504033213 74 57 6.1 7.8 0.00 0.25 0.25 68 1015.5
20260504032713 74 70 4.3 8.7 0.00 0.25 0.25 69 1015.8
20260504032213 74 61 2.6 8.7 0.00 0.25 0.25 69 1015.7
20260504031713 74 54 6.1 7.0 0.00 0.25 0.25 69 1015.7
20260504031212 74 37 3.5 8.7 0.00 0.25 0.25 69 1015.6
20260504030712 74 56 3.5 8.7 0.00 0.25 0.25 69 1015.7
20260504030212 74 53 2.6 7.8 0.00 0.25 0.25 70 1015.6
20260504025712 74 78 3.5 10.4 0.00 0.25 0.25 69 1015.6
20260504025212 74 53 2.6 10.4 0.00 0.25 0.25 69 1015.7
20260504024712 74 62 6.1 10.4 0.00 0.25 0.25 68 1015.3
20260504024212 74 71 8.7 9.6 0.00 0.25 0.25 69 1015.4
20260504023712 74 53 2.6 7.8 0.00 0.25 0.25 68 1015.5
20260504023232 74 73 3.5 6.1 0.00 0.25 0.25 68 1015.7
20260504022712 74 54 6.1 11.3 0.00 0.25 0.25 68 1015.5
20260504022212 74 32 3.5 11.3 0.00 0.25 0.25 68 1015.7
20260504021712 74 76 7.0 7.0 0.00 0.25 0.25 67 1015.5
20260504021212 74 65 0.9 7.8 0.00 0.25 0.25 67 1015.5
20260504020712 74 71 6.1 7.8 0.00 0.25 0.25 67 1015.2
20260504020212 74 71 7.8 7.8 0.00 0.25 0.25 67 1015.3
20260504015752 74 64 4.3 8.7 0.00 0.25 0.25 67 1015.4
20260504015212 74 67 2.6 7.8 0.00 0.25 0.25 67 1015.3
20260504014712 74 79 4.3 7.0 0.00 0.25 0.25 68 1015.1
20260504014212 74 74 2.6 5.2 0.00 0.25 0.25 68 1015.0
20260504013732 74 70 3.5 5.2 0.00 0.25 0.25 68 1015.2
20260504013212 74 58 4.3 4.3 0.00 0.25 0.25 68 1015.2
20260504012712 74 99 2.6 9.6 0.00 0.25 0.25 68 1015.1
20260504012212 74 102 2.6 9.6 0.00 0.25 0.25 68 1015.1
20260504011732 74 86 4.3 7.0 0.00 0.25 0.25 68 1015.1
20260504011212 74 80 7.0 8.7 0.00 0.25 0.25 68 1014.9
20260504010712 74 65 2.6 7.8 0.00 0.25 0.25 68 1015.1
20260504010212 74 60 1.7 3.5 0.00 0.25 0.25 68 1014.7
20260504005732 74 66 2.6 7.0 0.00 0.25 0.25 68 1015.1
20260504005232 74 60 5.2 6.1 0.00 0.25 0.25 68 1015.0
20260504004712 74 59 3.5 5.2 0.00 0.25 0.25 68 1014.9
20260504004212 74 78 1.7 8.7 0.00 0.25 0.25 67 1014.9
20260504003711 74 44 3.5 7.8 0.00 0.25 0.25 67 1015.0
20260504003211 74 41 5.2 7.8 0.00 0.25 0.25 68 1014.9
20260504002711 74 52 0.9 6.1 0.00 0.25 0.25 68 1014.7
20260504002232 74 30 1.7 6.1 0.00 0.25 0.25 68 1014.8
20260504001711 74 77 2.6 6.1 0.00 0.25 0.25 68 1014.6
20260504001211 74 40 5.2 8.7 0.00 0.25 0.25 67 1014.4
20260504000711 74 71 6.1 6.1 0.00 0.25 0.25 67 1014.6
20260504000252 74 80 0.9 4.3 0.00 0.25 0.25 66 1014.7
20260503235711 74 82 2.6 6.1 0.00 0.25 0.25 66 1014.5
20260503235211 74 38 2.6 6.1 0.00 0.25 0.25 67 1014.5
20260503234711 74 62 2.6 6.1 0.00 0.25 0.25 66 1014.8
20260503234211 74 57 7.8 7.8 0.00 0.25 0.25 67 1014.5
20260503233711 74 67 2.6 6.1 0.00 0.25 0.25 67 1014.4
20260503233211 74 74 5.2 5.2 0.00 0.25 0.25 67 1014.4
20260503232711 74 67 1.7 6.1 0.00 0.25 0.25 67 1014.5
20260503232211 74 42 1.7 6.1 0.00 0.25 0.25 67 1014.3
20260503231711 74 50 1.7 6.1 0.00 0.25 0.25 67 1014.4
20260503231231 74 31 3.5 7.0 0.00 0.25 0.25 67 1014.3
20260503230751 74 38 4.3 7.0 0.00 0.25 0.25 66 1014.4
20260503230211 74 29 1.7 7.0 0.00 0.25 0.25 66 1014.2
20260503225711 74 37 3.5 8.7 0.00 0.25 0.25 67 1014.0
20260503225231 74 63 3.5 8.7 0.00 0.25 0.25 67 1014.3
20260503224711 74 50 4.3 8.7 0.00 0.25 0.25 67 1014.4
20260503224211 74 49 3.5 8.7 0.00 0.25 0.25 67 1014.1
20260503223711 74 33 4.3 7.0 0.00 0.25 0.25 67 1014.3
20260503223211 74 46 3.5 6.1 0.00 0.25 0.25 66 1014.5
20260503222711 74 48 2.6 8.7 0.00 0.25 0.25 66 1014.3
20260503222210 74 68 2.6 8.7 0.00 0.25 0.25 65 1014.4
20260503221710 74 85 2.6 3.5 0.00 0.25 0.25 65 1014.4
20260503221230 74 55 3.5 7.0 0.00 0.25 0.25 66 1014.5
20260503220730 74 50 2.6 7.0 0.00 0.25 0.25 65 1014.4
20260503220210 74 43 3.5 6.1 0.00 0.25 0.25 65 1014.6
20260503215710 74 51 2.6 7.0 0.00 0.25 0.25 65 1014.3
20260503215210 74 59 7.0 7.0 0.00 0.25 0.25 65 1014.5
20260503214710 74 77 2.6 4.3 0.00 0.25 0.25 65 1014.6
20260503214210 74 57 8.7 8.7 0.00 0.25 0.25 65 1014.5
20260503213710 74 55 8.7 8.7 0.00 0.25 0.25 66 1014.4
20260503213210 74 56 2.6 7.0 0.00 0.25 0.25 66 1014.4
20260503212710 74 74 2.6 8.7 0.00 0.25 0.25 65 1014.7
20260503212210 74 73 3.5 8.7 0.00 0.25 0.25 65 1014.5
20260503211710 74 71 5.2 8.7 0.00 0.25 0.25 65 1014.7
20260503211210 74 30 2.6 8.7 0.00 0.25 0.25 65 1014.5
20260503210710 74 67 6.1 8.7 0.00 0.25 0.25 65 1014.6
20260503210210 74 48 3.5 8.7 0.00 0.25 0.25 65 1014.5
20260503205710 74 56 6.1 7.0 0.00 0.25 0.25 64 1014.6
20260503205210 74 33 2.6 7.0 0.00 0.25 0.25 65 1014.9
20260503204710 74 32 1.7 6.1 0.00 0.25 0.25 65 1014.9
20260503204210 74 55 2.6 6.1 0.00 0.25 0.25 65 1014.9
20260503203710 74 61 4.3 6.1 0.00 0.25 0.25 66 1015.0
20260503203209 74 63 3.5 6.1 0.00 0.25 0.25 65 1015.1
20260503202709 74 13 2.6 7.0 0.00 0.25 0.25 65 1014.9
20260503202229 74 66 6.1 7.0 0.00 0.25 0.25 66 1014.9
20260503201709 74 50 2.6 6.1 0.00 0.25 0.25 65 1014.9
20260503201209 74 40 2.6 7.0 0.00 0.25 0.25 65 1015.1
20260503200709 74 72 1.7 7.0 0.00 0.25 0.25 65 1014.8
20260503200229 74 57 6.1 6.1 0.00 0.25 0.25 67 1014.8
20260503195709 74 25 0.9 7.0 0.00 0.25 0.25 67 1015.2
20260503195209 74 31 1.7 7.0 0.00 0.25 0.25 66 1014.9
20260503194709 74 347 2.6 5.2 0.00 0.25 0.25 66 1015.1
20260503194209 74 61 2.6 8.7 0.00 0.25 0.25 66 1015.1
20260503193709 74 37 4.3 8.7 0.00 0.25 0.25 67 1015.1
20260503193209 74 358 2.6 8.7 0.00 0.25 0.25 66 1015.0
20260503192709 74 53 2.6 8.7 0.00 0.25 0.25 67 1015.0
20260503192209 74 40 3.5 8.7 0.00 0.25 0.25 67 1015.2
20260503191710 74 36 3.5 3.5 0.00 0.25 0.25 68 1015.1
20260503191229 74 30 3.5 9.6 0.00 0.25 0.25 68 1015.2
20260503190709 74 43 2.6 8.7 0.00 0.25 0.25 69 1015.4
20260503190229 74 27 2.6 6.1 0.00 0.25 0.25 68 1015.5
20260503185729 73 348 1.7 7.8 0.00 0.25 0.25 69 1015.5
20260503185209 73 27 1.7 4.3 0.00 0.25 0.25 71 1015.8
20260503184729 73 10 0.9 3.5 0.00 0.25 0.25 71 1015.7
20260503184209 73 36 5.2 8.7 0.00 0.25 0.25 71 1015.8
20260503183709 73 44 2.6 6.1 0.00 0.25 0.25 71 1015.9
20260503183229 73 5 1.7 5.2 0.00 0.25 0.25 72 1016.3
20260503182709 73 21 2.6 6.1 0.00 0.25 0.25 71 1016.4
20260503182209 73 37 4.3 4.3 0.00 0.25 0.25 72 1016.1
20260503181709 72 22 2.6 4.3 0.00 0.25 0.25 71 1016.4
20260503181208 72 45 2.6 8.7 0.00 0.25 0.25 71 1016.3
20260503180709 72 19 2.6 8.7 0.00 0.25 0.25 71 1016.4
20260503180208 72 16 5.2 7.8 0.00 0.25 0.25 71 1016.5
20260503175709 72 32 3.5 5.2 0.00 0.25 0.25 72 1016.4
20260503175229 72 49 2.6 5.2 0.00 0.25 0.25 72 1016.6
20260503174708 72 12 2.6 4.3 0.00 0.25 0.25 72 1016.4
20260503174208 72 12 2.6 7.0 0.00 0.25 0.25 72 1016.5
20260503173708 72 349 3.5 7.0 0.00 0.25 0.25 72 1016.4
20260503173208 72 22 2.6 7.0 0.00 0.25 0.25 73 1016.3
20260503172708 72 7 2.6 7.0 0.00 0.25 0.25 73 1016.5
20260503172208 72 25 0.9 6.1 0.00 0.25 0.25 72 1016.4
20260503171708 72 17 1.7 6.1 0.00 0.25 0.25 72 1016.3
20260503171208 73 56 1.7 9.6 0.00 0.25 0.25 71 1016.3
20260503170708 73 43 6.1 9.6 0.00 0.25 0.25 70 1016.3
20260503170208 73 21 2.6 8.7 0.00 0.25 0.25 70 1016.1